Location: Peebles
(55.6412°N, 3.1714°W)
Time: 15:36:03
(UTC+01:00)

Cosmos 2344 - Pass Details

Date: 26 September 2021
Orbit: 1235 x 3007 km, 63.3° (Epoch: 17 October)

Event Time Altitude Azimuth Distance (km) Brightness Sun altitude
Rises 19:56:00 0° 262° (W) 4,169 8.0 -8.6°
Reaches altitude 10° 19:58:42 10° 267° (W) 3,217 7.2 -9.0°
Maximum altitude 20:06:03 56° 346° (NNW) 1,582 4.3 -10.0°
Drops below altitude 10° 20:15:00 10° 64° (ENE) 3,881 5.7 -11.2°
Enters shadow 20:17:22 - 68° (ENE) 4,686 6.1 -11.6°
